FENGYUN 1C DEB, 30313

Orbit data source: Space-Track

FENGYUN 1C DEB, 30313 is space debris in SSO originally from a launch on Mon, 10 May 1999 UTC launched from the Taiyaun Space Center, China (TSC). Fengyun 1C debris stems from the Chinese weather satellite Fengyun-1C, which was intentionally destroyed by a Chinese anti-satellite missile in 2007. This event dramatically increased the amount of space debris, with thousands of trackable fragments posing hazards to satellites and human spaceflight. The Fengyun 1C debris cloud has become a focal point in discussions about space sustainability and the need for international regulations to prevent the creation of new debris.

Loading next visibility...
Identifier
30313, 1999-025AAA
Orbit
SSO
Country
Flag of CNCN / PRC
Related business
Manufacturer
Unknown
Mission
Spacecraft
Bus & Motor
Unknown
Mass
Unknown
Launch date (UTC)
1999-05-10 (27 years ago)
Launch vehicle
Unknown
Launch site
Taiyaun Space Center, China (TSC)
Object type
Payload
Rocket body
Debris
Shape & HBR
Unknown shape, 0.1 m
Radar Cross Section
Medium (>0.1 m² and <1 m²)

Expand to show TLE details & history
Last TLE update: 1 week ago

TLE from 1 week ago
0 FENGYUN 1C DEB
1 30313U 99025AAA 26154.49083397  .00004567  00000-0  18632-2 0  9990
2 30313  98.8692 247.8510 0057960 194.0221 227.6887 14.26957258995526
Epoch: 2026-06-03T11:46Z
TLE epoch observation values (Epoch: 2026-06-03T11:46:48.055Z)
Latitude
60.09489°
Longitude
163.54481°
Altitude
840.258 km
Speed
7.424 km/s
True Right ascension
15h 28m 46s
True Declination
59° 56' 52"
Sunlit
Object was in daylight at epoch
Visualization orbit readout
Latitude
Unknown
Longitude
Unknown
Altitude
Unknown
Speed
Unknown
Apparent Right ascension
Unknown
Apparent Declination
Unknown
Sunlit
N/A
Visualization observer readout
Local Sidereal Time
00:50:41
Azimuth
Unknown
Elevation
Unknown
Doppler factor
Unknown
Orbital elements
Apogee altitude
840.676 km
Perigee altitude
757.477 km
Semi-major axis
7,177.213 km
Eccentricity
0.0058
Inclination
98.8692°
RAAN
247.851°
Arg. of periapsis
194.0221°
True anomaly
227.19994°
Mean anomaly
227.6887°
Eccentric anomaly
227.44408°
Mean motion
3.56952 °/min
Orbital period
100.85 mins
BSTAR
0.0018632
Loading maneuver chart data...
Computing Atmospheric mass density...
Loading historical data...
Loading historical data...
Loading historical data...
Loading historical data...
Loading historical data...
Loading historical data...
Loading historical data...

Documentation

Showing up to 5 results
|